TimeCDT,TemperatureF,Dew PointF,Humidity,Sea Level PressureIn,VisibilityMPH,Wind Direction,Wind SpeedMPH,Gust SpeedMPH,PrecipitationIn,Events,Conditions,WindDirDegrees,DateUTC
12:52 AM,57.9,46.0,65,29.84,10.0,SSW,10.4,-,N/A,,Clear,210,2013-04-07 05:52:00
1:52 AM,57.0,46.9,69,29.84,10.0,SW,9.2,-,N/A,,Clear,230,2013-04-07 06:52:00
2:52 AM,55.9,46.9,72,29.84,10.0,SW,9.2,-,N/A,,Clear,220,2013-04-07 07:52:00
3:52 AM,55.9,48.0,75,29.84,10.0,SW,9.2,-,N/A,,Clear,230,2013-04-07 08:52:00
4:52 AM,57.0,48.9,74,29.86,10.0,WSW,6.9,-,N/A,,Clear,240,2013-04-07 09:52:00
5:52 AM,55.0,48.9,80,29.86,10.0,SW,9.2,-,N/A,,Clear,230,2013-04-07 10:52:00
6:52 AM,55.0,50.0,83,29.88,10.0,WSW,6.9,-,N/A,,Clear,240,2013-04-07 11:52:00
7:52 AM,54.0,50.0,86,29.89,10.0,SSE,5.8,-,N/A,,Clear,160,2013-04-07 12:52:00
8:52 AM,62.1,55.0,78,29.90,10.0,SW,6.9,-,N/A,,Clear,220,2013-04-07 13:52:00
9:52 AM,66.0,55.9,70,29.89,10.0,SSW,11.5,-,N/A,,Clear,210,2013-04-07 14:52:00
10:52 AM,69.1,57.0,65,29.90,10.0,WSW,11.5,-,N/A,,Clear,240,2013-04-07 15:52:00
11:52 AM,70.0,55.9,61,29.90,10.0,SW,10.4,-,N/A,,Partly Cloudy,230,2013-04-07 16:52:00
12:52 PM,70.0,55.9,61,29.88,10.0,SW,10.4,-,N/A,,Scattered Clouds,230,2013-04-07 17:52:00
1:52 PM,73.0,53.1,49,29.85,10.0,SW,8.1,-,N/A,,Clear,220,2013-04-07 18:52:00
2:52 PM,73.9,52.0,46,29.81,10.0,SSE,8.1,-,N/A,,Clear,160,2013-04-07 19:52:00
3:52 PM,75.9,51.1,42,29.78,10.0,South,9.2,-,N/A,,Partly Cloudy,190,2013-04-07 20:52:00
4:52 PM,75.0,50.0,41,29.75,10.0,SSE,13.8,-,N/A,,Partly Cloudy,150,2013-04-07 21:52:00
5:52 PM,73.9,50.0,43,29.73,10.0,SSE,13.8,-,N/A,,Scattered Clouds,160,2013-04-07 22:52:00
6:52 PM,73.0,50.0,44,29.71,10.0,SSE,15.0,-,N/A,,Mostly Cloudy,150,2013-04-07 23:52:00
7:52 PM,71.1,53.1,53,29.74,10.0,South,16.1,25.3,N/A,,Mostly Cloudy,180,2013-04-08 00:52:00
8:52 PM,68.0,54.0,61,29.76,10.0,South,9.2,-,N/A,,Overcast,170,2013-04-08 01:52:00
9:52 PM,64.9,53.1,65,29.78,10.0,South,12.7,-,N/A,,Scattered Clouds,180,2013-04-08 02:52:00
10:52 PM,64.0,53.1,67,29.79,10.0,SSE,11.5,-,N/A,,Overcast,160,2013-04-08 03:52:00
11:52 PM,64.0,54.0,70,29.78,10.0,SSE,15.0,-,N/A,,Overcast,150,2013-04-08 04:52:00